| time (UTC) | temp F | wind direction | speed MPH | gust MPH | rain 1hr in | rain 24hr in | rain mn in | humidity % | barometer mb |
| 20260905183119 | 69 | 271 | 2.0 | 4.0 | 0.00 | 0.00 | 0.00 | 53 | 1025.8 |
| 20260905182542 | 69 | 273 | 1.0 | 4.0 | 0.00 | 0.00 | 0.00 | 53 | 1026.0 |
| 20260905182042 | 70 | 273 | 1.0 | 6.0 | 0.00 | 0.00 | 0.00 | 52 | 1025.8 |
| 20260905181602 | 70 | 273 | 2.0 | 6.0 | 0.00 | 0.00 | 0.00 | 51 | 1025.9 |
| 20260905181043 | 70 | 254 | 2.0 | 4.0 | 0.00 | 0.00 | 0.00 | 50 | 1025.9 |
| 20260905180542 | 71 | 244 | 1.0 | 4.0 | 0.00 | 0.00 | 0.00 | 50 | 1025.9 |
| 20260905180106 | 71 | 0 | 1.0 | 4.0 | 0.00 | 0.00 | 0.00 | 50 | 1026.0 |
| 20260905175547 | 71 | 241 | 1.0 | 4.0 | 0.00 | 0.00 | 0.00 | 49 | 1025.9 |
| 20260905175043 | 71 | 265 | 2.0 | 5.0 | 0.00 | 0.00 | 0.00 | 49 | 1025.9 |
| 20260905174601 | 71 | 247 | 2.0 | 6.0 | 0.00 | 0.00 | 0.00 | 49 | 1025.9 |
| 20260905174044 | 71 | 249 | 3.0 | 7.0 | 0.00 | 0.00 | 0.00 | 48 | 1025.9 |
| 20260905173543 | 71 | 232 | 4.0 | 7.0 | 0.00 | 0.00 | 0.00 | 48 | 1025.9 |
| 20260905173101 | 72 | 241 | 2.0 | 6.0 | 0.00 | 0.00 | 0.00 | 48 | 1025.7 |
| 20260905172544 | 72 | 273 | 1.0 | 7.0 | 0.00 | 0.00 | 0.00 | 50 | 1025.8 |
| 20260905172042 | 72 | 265 | 3.0 | 7.0 | 0.00 | 0.00 | 0.00 | 48 | 1025.8 |
| 20260905171600 | 72 | 0 | 2.0 | 7.0 | 0.00 | 0.00 | 0.00 | 50 | 1025.8 |
| 20260905171044 | 72 | 216 | 3.0 | 7.0 | 0.00 | 0.00 | 0.00 | 49 | 1025.7 |
| 20260905170543 | 72 | 246 | 3.0 | 8.0 | 0.00 | 0.00 | 0.00 | 49 | 1025.7 |
| 20260905170104 | 72 | 213 | 4.0 | 8.0 | 0.00 | 0.00 | 0.00 | 49 | 1025.8 |
| 20260905165542 | 71 | 263 | 2.0 | 8.0 | 0.00 | 0.00 | 0.00 | 51 | 1025.8 |
| 20260905165043 | 71 | 319 | 3.0 | 8.0 | 0.00 | 0.00 | 0.00 | 51 | 1025.7 |
| 20260905164604 | 72 | 327 | 4.0 | 8.0 | 0.00 | 0.00 | 0.00 | 49 | 1025.6 |
| 20260905164043 | 73 | 320 | 2.0 | 5.0 | 0.00 | 0.00 | 0.00 | 49 | 1025.8 |
| 20260905163545 | 72 | 188 | 1.0 | 5.0 | 0.00 | 0.00 | 0.00 | 49 | 1025.7 |
| 20260905163106 | 72 | 214 | 1.0 | 5.0 | 0.00 | 0.00 | 0.00 | 51 | 1025.8 |
| 20260905162545 | 71 | 300 | 1.0 | 4.0 | 0.00 | 0.00 | 0.00 | 51 | 1025.7 |
| 20260905162044 | 71 | 298 | 2.0 | 9.0 | 0.00 | 0.00 | 0.00 | 51 | 1025.8 |
| 20260905161604 | 71 | 291 | 3.0 | 9.0 | 0.00 | 0.00 | 0.00 | 52 | 1025.8 |
| 20260905161043 | 72 | 238 | 3.0 | 8.0 | 0.00 | 0.00 | 0.00 | 50 | 1025.9 |
| 20260905160543 | 72 | 273 | 2.0 | 8.0 | 0.00 | 0.00 | 0.00 | 50 | 1025.9 |
| 20260905155544 | 72 | 331 | 3.0 | 7.0 | 0.00 | 0.00 | 0.00 | 49 | 1025.9 |
| 20260905155043 | 72 | 343 | 1.0 | 6.0 | 0.00 | 0.00 | 0.00 | 51 | 1026.0 |
| 20260905154557 | 71 | 0 | 1.0 | 6.0 | 0.00 | 0.00 | 0.00 | 53 | 1025.9 |
| 20260905154043 | 71 | 292 | 2.0 | 6.0 | 0.00 | 0.00 | 0.00 | 52 | 1025.9 |
| 20260905153544 | 71 | 293 | 2.0 | 9.0 | 0.00 | 0.00 | 0.00 | 52 | 1025.9 |
| 20260905153111 | 71 | 322 | 2.0 | 9.0 | 0.00 | 0.00 | 0.00 | 54 | 1025.9 |
| 20260905152543 | 70 | 313 | 5.0 | 9.0 | 0.00 | 0.00 | 0.00 | 52 | 1025.9 |
| 20260905152045 | 71 | 313 | 3.0 | 8.0 | 0.00 | 0.00 | 0.00 | 53 | 1025.9 |
| 20260905151611 | 71 | 338 | 4.0 | 8.0 | 0.00 | 0.00 | 0.00 | 51 | 1026.0 |
| 20260905151045 | 71 | 255 | 3.0 | 7.0 | 0.00 | 0.00 | 0.00 | 51 | 1026.1 |
| 20260905150544 | 70 | 298 | 3.0 | 8.0 | 0.00 | 0.00 | 0.00 | 52 | 1026.0 |
| 20260905145545 | 70 | 338 | 3.0 | 8.0 | 0.00 | 0.00 | 0.00 | 53 | 1026.1 |
| 20260905145044 | 70 | 318 | 3.0 | 8.0 | 0.00 | 0.00 | 0.00 | 54 | 1026.2 |
| 20260905144559 | 70 | 333 | 4.0 | 11.0 | 0.00 | 0.00 | 0.00 | 52 | 1026.2 |
| 20260905144045 | 70 | 262 | 5.0 | 11.0 | 0.00 | 0.00 | 0.00 | 53 | 1026.3 |
| 20260905143545 | 70 | 223 | 2.0 | 9.0 | 0.00 | 0.00 | 0.00 | 52 | 1026.2 |
| 20260905143059 | 70 | 196 | 4.0 | 10.0 | 0.00 | 0.00 | 0.00 | 53 | 1026.1 |
| 20260905142544 | 69 | 269 | 3.0 | 12.0 | 0.00 | 0.00 | 0.00 | 55 | 1026.2 |
| 20260905142045 | 69 | 309 | 7.0 | 12.0 | 0.00 | 0.00 | 0.00 | 54 | 1026.1 |
| 20260905141621 | 69 | 349 | 3.0 | 9.0 | 0.00 | 0.00 | 0.00 | 56 | 1026.0 |
| 20260905141047 | 69 | 315 | 3.0 | 9.0 | 0.00 | 0.00 | 0.00 | 55 | 1026.1 |
| 20260905140545 | 69 | 324 | 5.0 | 11.0 | 0.00 | 0.00 | 0.00 | 54 | 1026.2 |
| 20260905140108 | 69 | 277 | 4.0 | 11.0 | 0.00 | 0.00 | 0.00 | 52 | 1026.1 |
| 20260905135544 | 69 | 311 | 5.0 | 10.0 | 0.00 | 0.00 | 0.00 | 54 | 1026.1 |
| 20260905135045 | 69 | 247 | 4.0 | 10.0 | 0.00 | 0.00 | 0.00 | 53 | 1026.1 |
| 20260905134604 | 69 | 287 | 3.0 | 8.0 | 0.00 | 0.00 | 0.00 | 54 | 1026.0 |
| 20260905134045 | 68 | 313 | 3.0 | 12.0 | 0.00 | 0.00 | 0.00 | 57 | 1026.0 |
| 20260905133545 | 69 | 328 | 5.0 | 12.0 | 0.00 | 0.00 | 0.00 | 56 | 1026.1 |
| 20260905133058 | 69 | 0 | 2.0 | 10.0 | 0.00 | 0.00 | 0.00 | 55 | 1025.9 |
| 20260905132545 | 69 | 277 | 5.0 | 10.0 | 0.00 | 0.00 | 0.00 | 54 | 1025.9 |
| 20260905132047 | 68 | 238 | 4.0 | 10.0 | 0.00 | 0.00 | 0.00 | 56 | 1026.0 |
| 20260905131618 | 67 | 263 | 2.0 | 9.0 | 0.00 | 0.00 | 0.00 | 59 | 1026.0 |
| 20260905131044 | 67 | 296 | 3.0 | 9.0 | 0.00 | 0.00 | 0.00 | 57 | 1026.1 |
| 20260905130547 | 67 | 17 | 3.0 | 9.0 | 0.00 | 0.00 | 0.00 | 57 | 1026.0 |
| 20260905130105 | 67 | 328 | 4.0 | 11.0 | 0.00 | 0.00 | 0.00 | 57 | 1025.9 |
| 20260905125545 | 68 | 315 | 5.0 | 11.0 | 0.00 | 0.00 | 0.00 | 57 | 1025.9 |
| 20260905125043 | 68 | 221 | 5.0 | 9.0 | 0.00 | 0.00 | 0.00 | 57 | 1026.0 |
| 20260905124604 | 68 | 298 | 5.0 | 9.0 | 0.00 | 0.00 | 0.00 | 58 | 1026.0 |
| 20260905124042 | 68 | 317 | 5.0 | 10.0 | 0.00 | 0.00 | 0.00 | 57 | 1025.9 |
| 20260905123542 | 68 | 289 | 3.0 | 10.0 | 0.00 | 0.00 | 0.00 | 56 | 1025.8 |
| 20260905123106 | 68 | 285 | 4.0 | 12.0 | 0.00 | 0.00 | 0.00 | 57 | 1025.8 |
| 20260905122543 | 68 | 311 | 5.0 | 12.0 | 0.00 | 0.00 | 0.00 | 56 | 1025.8 |
| 20260905122043 | 68 | 230 | 4.0 | 12.0 | 0.00 | 0.00 | 0.00 | 57 | 1025.8 |
| 20260905121602 | 67 | 227 | 6.0 | 12.0 | 0.00 | 0.00 | 0.00 | 59 | 1025.9 |
| 20260905121042 | 67 | 238 | 5.0 | 11.0 | 0.00 | 0.00 | 0.00 | 57 | 1025.8 |
| 20260905120543 | 67 | 279 | 5.0 | 12.0 | 0.00 | 0.00 | 0.00 | 58 | 1025.7 |
| 20260905115542 | 66 | 277 | 6.0 | 11.0 | 0.00 | 0.00 | 0.00 | 61 | 1025.7 |
| 20260905115043 | 66 | 327 | 4.0 | 12.0 | 0.00 | 0.00 | 0.00 | 59 | 1025.7 |
| 20260905114600 | 66 | 271 | 5.0 | 12.0 | 0.00 | 0.00 | 0.00 | 60 | 1025.7 |
| 20260905114046 | 66 | 257 | 5.0 | 12.0 | 0.00 | 0.00 | 0.00 | 60 | 1025.8 |
| 20260905113543 | 66 | 306 | 6.0 | 11.0 | 0.00 | 0.00 | 0.00 | 61 | 1025.8 |
| 20260905113059 | 66 | 314 | 5.0 | 11.0 | 0.00 | 0.00 | 0.00 | 61 | 1025.8 |
| 20260905112542 | 66 | 247 | 5.0 | 11.0 | 0.00 | 0.00 | 0.00 | 62 | 1025.8 |
| 20260905112043 | 65 | 298 | 4.0 | 15.0 | 0.00 | 0.00 | 0.00 | 63 | 1025.9 |
| 20260905111558 | 65 | 312 | 5.0 | 15.0 | 0.00 | 0.00 | 0.00 | 63 | 1025.8 |
| 20260905111042 | 65 | 331 | 3.0 | 11.0 | 0.00 | 0.00 | 0.00 | 64 | 1025.9 |
| 20260905110542 | 65 | 324 | 3.0 | 11.0 | 0.00 | 0.00 | 0.00 | 63 | 1025.7 |
| 20260905110101 | 64 | 289 | 6.0 | 11.0 | 0.00 | 0.00 | 0.00 | 63 | 1025.8 |
| 20260905105543 | 64 | 304 | 7.0 | 10.0 | 0.00 | 0.00 | 0.00 | 65 | 1025.8 |
| 20260905105042 | 64 | 325 | 7.0 | 12.0 | 0.00 | 0.00 | 0.00 | 65 | 1025.7 |
| 20260905104559 | 64 | 325 | 6.0 | 12.0 | 0.00 | 0.00 | 0.00 | 67 | 1025.8 |
| 20260905104042 | 64 | 299 | 5.0 | 11.0 | 0.00 | 0.00 | 0.00 | 67 | 1025.8 |
| 20260905103547 | 63 | 317 | 7.0 | 13.0 | 0.00 | 0.00 | 0.00 | 67 | 1025.8 |
| 20260905103104 | 63 | 266 | 7.0 | 13.0 | 0.00 | 0.00 | 0.00 | 67 | 1025.8 |
| 20260905102542 | 63 | 322 | 7.0 | 14.0 | 0.00 | 0.00 | 0.00 | 67 | 1025.7 |
| 20260905102042 | 64 | 318 | 8.0 | 14.0 | 0.00 | 0.00 | 0.00 | 67 | 1025.6 |
| 20260905101559 | 64 | 294 | 5.0 | 11.0 | 0.00 | 0.00 | 0.00 | 69 | 1025.7 |
| 20260905101043 | 63 | 294 | 5.0 | 12.0 | 0.00 | 0.00 | 0.00 | 68 | 1025.6 |
| 20260905100545 | 64 | 327 | 5.0 | 12.0 | 0.00 | 0.00 | 0.00 | 66 | 1025.6 |
| 20260905100121 | 64 | 299 | 5.0 | 12.0 | 0.00 | 0.00 | 0.00 | 68 | 1025.6 |
| 20260905095542 | 63 | 219 | 7.0 | 13.0 | 0.00 | 0.00 | 0.00 | 69 | 1025.6 |
| 20260905095042 | 63 | 313 | 5.0 | 13.0 | 0.00 | 0.00 | 0.00 | 69 | 1025.5 |
| 20260905094558 | 63 | 309 | 7.0 | 11.0 | 0.00 | 0.00 | 0.00 | 70 | 1025.5 |
| 20260905094042 | 63 | 343 | 3.0 | 10.0 | 0.00 | 0.00 | 0.00 | 71 | 1025.3 |
| 20260905093544 | 62 | 272 | 4.0 | 12.0 | 0.00 | 0.00 | 0.00 | 72 | 1025.3 |
| 20260905093059 | 62 | 300 | 4.0 | 12.0 | 0.00 | 0.00 | 0.00 | 73 | 1025.3 |
| 20260905092544 | 62 | 313 | 6.0 | 12.0 | 0.00 | 0.00 | 0.00 | 72 | 1025.3 |
| 20260905092043 | 62 | 315 | 4.0 | 12.0 | 0.00 | 0.00 | 0.00 | 74 | 1025.4 |
| 20260905091600 | 62 | 305 | 5.0 | 12.0 | 0.00 | 0.00 | 0.00 | 73 | 1025.4 |
| 20260905091045 | 62 | 254 | 6.0 | 10.0 | 0.00 | 0.00 | 0.00 | 73 | 1025.2 |
| 20260905090544 | 61 | 281 | 5.0 | 10.0 | 0.00 | 0.00 | 0.00 | 74 | 1025.2 |
| 20260905090134 | 61 | 280 | 4.0 | 12.0 | 0.00 | 0.00 | 0.00 | 75 | 1025.1 |
| 20260905085545 | 61 | 242 | 6.0 | 12.0 | 0.00 | 0.00 | 0.00 | 75 | 1025.1 |
| 20260905085049 | 61 | 315 | 6.0 | 12.0 | 0.00 | 0.00 | 0.00 | 75 | 1025.2 |
| 20260905084603 | 61 | 285 | 7.0 | 12.0 | 0.00 | 0.00 | 0.00 | 76 | 1025.1 |
| 20260905084044 | 60 | 314 | 7.0 | 12.0 | 0.00 | 0.00 | 0.00 | 77 | 1025.1 |
| 20260905083544 | 60 | 309 | 6.0 | 13.0 | 0.00 | 0.00 | 0.00 | 78 | 1025.1 |
| 20260905083057 | 60 | 306 | 7.0 | 13.0 | 0.00 | 0.00 | 0.00 | 78 | 1024.9 |
| 20260905082544 | 60 | 294 | 6.0 | 11.0 | 0.00 | 0.00 | 0.00 | 79 | 1025.1 |
| 20260905082044 | 60 | 258 | 3.0 | 10.0 | 0.00 | 0.00 | 0.00 | 80 | 1025.0 |
| 20260905081604 | 59 | 284 | 4.0 | 10.0 | 0.00 | 0.00 | 0.00 | 80 | 1025.0 |
| 20260905081043 | 59 | 250 | 5.0 | 11.0 | 0.00 | 0.00 | 0.00 | 80 | 1024.9 |
| 20260905080546 | 59 | 271 | 5.0 | 11.0 | 0.00 | 0.00 | 0.00 | 81 | 1024.9 |
| 20260905080059 | 59 | 246 | 4.0 | 12.0 | 0.00 | 0.00 | 0.00 | 82 | 1024.9 |
| 20260905075544 | 58 | 259 | 4.0 | 12.0 | 0.00 | 0.03 | 0.00 | 82 | 1024.9 |
| 20260905075044 | 58 | 266 | 5.0 | 12.0 | 0.00 | 0.03 | 0.00 | 83 | 1024.9 |
| 20260905074607 | 58 | 223 | 4.0 | 8.0 | 0.00 | 0.03 | 0.00 | 84 | 1024.9 |
| 20260905074043 | 57 | 262 | 3.0 | 7.0 | 0.00 | 0.03 | 0.00 | 85 | 1024.7 |
| 20260905073547 | 57 | 268 | 3.0 | 11.0 | 0.00 | 0.03 | 0.00 | 86 | 1024.6 |
| 20260905073106 | 56 | 239 | 5.0 | 11.0 | 0.00 | 0.03 | 0.00 | 87 | 1024.6 |
| 20260905072543 | 56 | 244 | 1.0 | 11.0 | 0.00 | 0.03 | 0.00 | 89 | 1024.8 |
| 20260905072046 | 55 | 277 | 6.0 | 11.0 | 0.00 | 0.03 | 0.00 | 89 | 1024.7 |
| 20260905071600 | 55 | 241 | 2.0 | 7.0 | 0.00 | 0.03 | 0.00 | 91 | 1024.5 |
| 20260905071047 | 55 | 263 | 3.0 | 8.0 | 0.00 | 0.03 | 0.00 | 91 | 1024.5 |
| 20260905070544 | 54 | 234 | 4.0 | 8.0 | 0.00 | 0.03 | 0.00 | 91 | 1024.4 |
| 20260905065544 | 54 | 237 | 2.0 | 7.0 | 0.00 | 0.03 | 0.00 | 92 | 1024.3 |
| 20260905065046 | 53 | 240 | 2.0 | 6.0 | 0.00 | 0.03 | 0.00 | 92 | 1024.3 |
| 20260905064602 | 53 | 267 | 1.0 | 5.0 | 0.00 | 0.03 | 0.00 | 93 | 1024.2 |
| 20260905064043 | 53 | 229 | 1.0 | 6.0 | 0.00 | 0.03 | 0.00 | 93 | 1024.4 |
| 20260905063548 | 53 | 257 | 2.0 | 6.0 | 0.00 | 0.03 | 0.00 | 93 | 1024.3 |
| 20260905063105 | 53 | 194 | 1.0 | 3.0 | 0.00 | 0.03 | 0.00 | 93 | 1024.3 |
| 20260905062544 | 52 | 0 | 0.0 | 2.0 | 0.00 | 0.03 | 0.00 | 93 | 1024.3 |
| 20260905062045 | 52 | 0 | 0.0 | 3.0 | 0.00 | 0.03 | 0.00 | 93 | 1024.1 |
| 20260905061604 | 52 | 0 | 0.0 | 3.0 | 0.00 | 0.03 | 0.00 | 93 | 1023.9 |
| 20260905061128 | 52 | 189 | 0.0 | 2.0 | 0.00 | 0.03 | 0.00 | 93 | 1023.9 |
| 20260905060544 | 52 | 0 | 0.0 | 3.0 | 0.00 | 0.03 | 0.00 | 93 | 1023.8 |
| 20260905055547 | 52 | 188 | 1.0 | 3.0 | 0.00 | 0.03 | 0.00 | 93 | 1023.7 |
| 20260905055044 | 52 | 0 | 0.0 | 2.0 | 0.00 | 0.03 | 0.00 | 93 | 1023.7 |
| 20260905054600 | 51 | 0 | 0.0 | 1.0 | 0.00 | 0.03 | 0.00 | 92 | 1023.7 |
| 20260905054044 | 51 | 0 | 0.0 | 3.0 | 0.00 | 0.03 | 0.00 | 92 | 1023.6 |
| 20260905053545 | 52 | 0 | 0.0 | 3.0 | 0.00 | 0.03 | 0.00 | 92 | 1023.6 |
| 20260905053059 | 52 | 188 | 0.0 | 3.0 | 0.00 | 0.03 | 0.00 | 92 | 1023.5 |
| 20260905052545 | 52 | 0 | 0.0 | 3.0 | 0.00 | 0.03 | 0.00 | 92 | 1023.5 |
| 20260905052044 | 52 | 188 | 0.0 | 3.0 | 0.00 | 0.03 | 0.00 | 92 | 1023.4 |
| 20260905051600 | 52 | 0 | 0.0 | 2.0 | 0.00 | 0.03 | 0.00 | 91 | 1023.2 |
| 20260905051044 | 52 | 0 | 0.0 | 2.0 | 0.00 | 0.03 | 0.00 | 92 | 1023.3 |
| 20260905050545 | 52 | 0 | 0.0 | 2.0 | 0.00 | 0.03 | 0.00 | 91 | 1023.2 |
| 20260905050107 | 52 | 0 | 0.0 | 2.0 | 0.00 | 0.03 | 0.00 | 92 | 1023.1 |
| 20260905045544 | 52 | 229 | 0.0 | 1.0 | 0.00 | 0.03 | 0.00 | 92 | 1023.1 |
| 20260905045044 | 52 | 0 | 0.0 | 2.0 | 0.00 | 0.03 | 0.00 | 91 | 1023.1 |
| 20260905044557 | 52 | 0 | 0.0 | 4.0 | 0.00 | 0.03 | 0.00 | 92 | 1023.1 |
| 20260905044044 | 53 | 0 | 0.0 | 4.0 | 0.00 | 0.03 | 0.00 | 91 | 1023.1 |
| 20260905043545 | 53 | 229 | 1.0 | 4.0 | 0.00 | 0.03 | 0.00 | 92 | 1023.0 |
| 20260905043106 | 53 | 0 | 2.0 | 4.0 | 0.00 | 0.03 | 0.00 | 91 | 1022.9 |
| 20260905042543 | 53 | 234 | 1.0 | 6.0 | 0.00 | 0.03 | 0.00 | 91 | 1022.9 |
| 20260905042044 | 53 | 0 | 1.0 | 6.0 | 0.00 | 0.03 | 0.00 | 91 | 1022.9 |
| 20260905041558 | 53 | 231 | 2.0 | 4.0 | 0.00 | 0.03 | 0.00 | 91 | 1022.8 |
| 20260905041044 | 53 | 217 | 2.0 | 5.0 | 0.00 | 0.03 | 0.00 | 91 | 1022.9 |
| 20260905040544 | 53 | 249 | 2.0 | 7.0 | 0.00 | 0.03 | 0.00 | 91 | 1022.8 |
| 20260905040105 | 53 | 246 | 2.0 | 9.0 | 0.00 | 0.03 | 0.00 | 91 | 1022.8 |
| 20260905035544 | 53 | 257 | 3.0 | 9.0 | 0.00 | 0.03 | 0.00 | 91 | 1022.8 |
| 20260905035044 | 53 | 246 | 4.0 | 9.0 | 0.00 | 0.03 | 0.00 | 91 | 1022.8 |
| 20260905034600 | 53 | 251 | 5.0 | 11.0 | 0.00 | 0.03 | 0.00 | 91 | 1022.7 |
| 20260905034043 | 53 | 256 | 5.0 | 11.0 | 0.00 | 0.03 | 0.00 | 91 | 1022.4 |
| 20260905033544 | 53 | 247 | 3.0 | 8.0 | 0.00 | 0.03 | 0.00 | 91 | 1022.5 |
| 20260905033104 | 53 | 229 | 3.0 | 9.0 | 0.00 | 0.03 | 0.00 | 91 | 1022.6 |
| 20260905032545 | 53 | 272 | 3.0 | 9.0 | 0.00 | 0.03 | 0.00 | 91 | 1022.5 |
| 20260905032044 | 53 | 256 | 5.0 | 11.0 | 0.00 | 0.03 | 0.00 | 91 | 1022.5 |
| 20260905031617 | 53 | 261 | 5.0 | 11.0 | 0.00 | 0.03 | 0.00 | 91 | 1022.3 |
| 20260905031043 | 53 | 209 | 3.0 | 8.0 | 0.00 | 0.03 | 0.00 | 90 | 1022.4 |
| 20260905030545 | 54 | 250 | 3.0 | 8.0 | 0.00 | 0.03 | 0.00 | 90 | 1022.3 |
| 20260905030101 | 54 | 269 | 3.0 | 8.0 | 0.00 | 0.03 | 0.00 | 90 | 1022.2 |
| 20260905025544 | 54 | 245 | 3.0 | 8.0 | 0.00 | 0.03 | 0.00 | 90 | 1022.2 |
| 20260905025044 | 54 | 213 | 4.0 | 8.0 | 0.00 | 0.03 | 0.00 | 90 | 1022.0 |
| 20260905024600 | 54 | 207 | 4.0 | 8.0 | 0.00 | 0.03 | 0.00 | 90 | 1021.9 |
| 20260905024044 | 54 | 206 | 3.0 | 7.0 | 0.00 | 0.03 | 0.00 | 90 | 1022.1 |
| 20260905023546 | 54 | 237 | 2.0 | 6.0 | 0.00 | 0.03 | 0.00 | 90 | 1022.0 |
| 20260905023103 | 54 | 219 | 2.0 | 6.0 | 0.00 | 0.03 | 0.00 | 90 | 1021.9 |
| 20260905022544 | 54 | 236 | 2.0 | 6.0 | 0.00 | 0.03 | 0.00 | 90 | 1021.8 |
| 20260905022042 | 54 | 238 | 2.0 | 5.0 | 0.00 | 0.03 | 0.00 | 90 | 1021.8 |
| 20260905021603 | 54 | 219 | 2.0 | 6.0 | 0.00 | 0.03 | 0.00 | 89 | 1021.6 |
| 20260905021044 | 54 | 217 | 3.0 | 6.0 | 0.00 | 0.03 | 0.00 | 89 | 1021.7 |
| 20260905020544 | 54 | 208 | 2.0 | 7.0 | 0.00 | 0.03 | 0.00 | 89 | 1021.7 |
| 20260905015544 | 54 | 236 | 2.0 | 5.0 | 0.00 | 0.03 | 0.00 | 89 | 1021.8 |
| 20260905015044 | 54 | 223 | 2.0 | 6.0 | 0.00 | 0.03 | 0.00 | 89 | 1021.8 |
| 20260905014601 | 54 | 225 | 2.0 | 6.0 | 0.00 | 0.03 | 0.00 | 89 | 1021.7 |
| 20260905014044 | 54 | 198 | 1.0 | 6.0 | 0.00 | 0.03 | 0.00 | 89 | 1021.7 |
| 20260905013543 | 54 | 216 | 2.0 | 5.0 | 0.00 | 0.03 | 0.00 | 88 | 1021.7 |
| 20260905013104 | 54 | 225 | 2.0 | 5.0 | 0.00 | 0.03 | 0.00 | 88 | 1021.8 |
| 20260905012548 | 54 | 220 | 2.0 | 5.0 | 0.00 | 0.03 | 0.00 | 88 | 1021.7 |
| 20260905012045 | 54 | 243 | 2.0 | 5.0 | 0.00 | 0.03 | 0.00 | 88 | 1021.6 |
| 20260905011602 | 54 | 236 | 2.0 | 7.0 | 0.00 | 0.03 | 0.00 | 88 | 1021.5 |
| 20260905011044 | 54 | 217 | 3.0 | 7.0 | 0.00 | 0.03 | 0.00 | 88 | 1021.5 |
| 20260905010545 | 55 | 217 | 2.0 | 6.0 | 0.00 | 0.03 | 0.00 | 88 | 1021.4 |
| 20260905010107 | 55 | 205 | 2.0 | 6.0 | 0.00 | 0.03 | 0.00 | 87 | 1021.4 |
| 20260905005544 | 55 | 234 | 2.0 | 6.0 | 0.00 | 0.03 | 0.00 | 87 | 1021.4 |
| 20260905005044 | 55 | 247 | 3.0 | 7.0 | 0.00 | 0.03 | 0.00 | 87 | 1021.5 |
| 20260905004603 | 55 | 208 | 3.0 | 7.0 | 0.00 | 0.03 | 0.00 | 87 | 1021.6 |
| 20260905004043 | 55 | 209 | 3.0 | 7.0 | 0.00 | 0.03 | 0.00 | 87 | 1021.5 |
| 20260905003544 | 55 | 229 | 3.0 | 8.0 | 0.00 | 0.03 | 0.00 | 87 | 1021.5 |
| 20260905003059 | 55 | 204 | 3.0 | 8.0 | 0.00 | 0.03 | 0.00 | 87 | 1021.3 |
| 20260905002548 | 55 | 229 | 3.0 | 7.0 | 0.00 | 0.03 | 0.00 | 87 | 1021.3 |
| 20260905002043 | 55 | 221 | 2.0 | 7.0 | 0.00 | 0.03 | 0.00 | 87 | 1021.3 |
| 20260905001600 | 55 | 239 | 2.0 | 6.0 | 0.00 | 0.03 | 0.00 | 86 | 1021.2 |
| 20260905001045 | 55 | 221 | 2.0 | 7.0 | 0.00 | 0.03 | 0.00 | 86 | 1021.1 |
| 20260905000546 | 55 | 230 | 3.0 | 7.0 | 0.00 | 0.03 | 0.00 | 86 | 1021.1 |
| 20260905000107 | 55 | 225 | 2.0 | 7.0 | 0.00 | 0.03 | 0.00 | 86 | 1021.1 |
| 20260904235543 | 55 | 227 | 2.0 | 7.0 | 0.00 | 0.03 | 0.00 | 86 | 1021.1 |
| 20260904235043 | 56 | 244 | 2.0 | 6.0 | 0.00 | 0.03 | 0.00 | 86 | 1021.1 |
| 20260904234601 | 56 | 223 | 2.0 | 6.0 | 0.00 | 0.03 | 0.00 | 85 | 1021.1 |
| 20260904234043 | 56 | 221 | 2.0 | 6.0 | 0.00 | 0.03 | 0.00 | 85 | 1021.0 |
| 20260904233543 | 56 | 240 | 2.0 | 5.0 | 0.00 | 0.03 | 0.00 | 85 | 1021.1 |
| 20260904233100 | 56 | 213 | 2.0 | 5.0 | 0.00 | 0.03 | 0.00 | 85 | 1021.2 |
| 20260904232544 | 56 | 229 | 2.0 | 5.0 | 0.00 | 0.03 | 0.00 | 85 | 1021.1 |
| 20260904232043 | 56 | 216 | 2.0 | 5.0 | 0.00 | 0.03 | 0.00 | 85 | 1021.0 |
| 20260904231600 | 56 | 232 | 2.0 | 6.0 | 0.00 | 0.03 | 0.00 | 84 | 1021.1 |
| 20260904231043 | 56 | 219 | 1.0 | 6.0 | 0.00 | 0.03 | 0.00 | 84 | 1021.0 |
| 20260904230545 | 56 | 258 | 2.0 | 6.0 | 0.00 | 0.03 | 0.00 | 84 | 1021.0 |
| 20260904230112 | 56 | 217 | 3.0 | 7.0 | 0.00 | 0.03 | 0.00 | 84 | 1020.8 |
| 20260904225544 | 56 | 242 | 3.0 | 7.0 | 0.00 | 0.03 | 0.03 | 84 | 1020.9 |
| 20260904225043 | 57 | 250 | 3.0 | 7.0 | 0.00 | 0.03 | 0.03 | 84 | 1020.8 |
| 20260904224600 | 57 | 233 | 3.0 | 6.0 | 0.00 | 0.03 | 0.03 | 83 | 1020.9 |
| 20260904224048 | 57 | 227 | 2.0 | 7.0 | 0.00 | 0.03 | 0.03 | 83 | 1020.8 |
| 20260904223543 | 57 | 223 | 2.0 | 7.0 | 0.00 | 0.03 | 0.03 | 83 | 1020.7 |
| 20260904223104 | 57 | 227 | 2.0 | 6.0 | 0.00 | 0.03 | 0.03 | 83 | 1020.7 |
| 20260904222543 | 57 | 207 | 1.0 | 6.0 | 0.00 | 0.03 | 0.03 | 82 | 1020.7 |
| 20260904222044 | 57 | 182 | 2.0 | 5.0 | 0.00 | 0.03 | 0.03 | 82 | 1020.7 |
| 20260904221609 | 58 | 196 | 2.0 | 5.0 | 0.00 | 0.03 | 0.03 | 82 | 1020.6 |
| 20260904221047 | 58 | 219 | 1.0 | 5.0 | 0.00 | 0.03 | 0.03 | 82 | 1020.6 |
| 20260904220547 | 58 | 214 | 2.0 | 5.0 | 0.00 | 0.03 | 0.03 | 81 | 1020.6 |
| 20260904220122 | 58 | 217 | 3.0 | 6.0 | 0.00 | 0.03 | 0.03 | 81 | 1020.5 |
| 20260904215543 | 58 | 215 | 3.0 | 6.0 | 0.00 | 0.03 | 0.03 | 81 | 1020.5 |
| 20260904215043 | 58 | 207 | 2.0 | 5.0 | 0.00 | 0.03 | 0.03 | 80 | 1020.6 |
| 20260904214558 | 58 | 216 | 2.0 | 6.0 | 0.00 | 0.03 | 0.03 | 80 | 1020.6 |
| 20260904214043 | 59 | 211 | 2.0 | 6.0 | 0.00 | 0.03 | 0.03 | 80 | 1020.5 |
| 20260904213543 | 59 | 215 | 1.0 | 7.0 | 0.00 | 0.03 | 0.03 | 79 | 1020.6 |
| 20260904213102 | 59 | 252 | 2.0 | 8.0 | 0.00 | 0.03 | 0.03 | 79 | 1020.6 |
| 20260904212545 | 59 | 253 | 3.0 | 8.0 | 0.00 | 0.03 | 0.03 | 79 | 1020.4 |
| 20260904212043 | 59 | 240 | 2.0 | 7.0 | 0.00 | 0.03 | 0.03 | 79 | 1020.4 |
| 20260904211608 | 59 | 235 | 3.0 | 7.0 | 0.00 | 0.03 | 0.03 | 78 | 1020.3 |
| 20260904211044 | 60 | 275 | 3.0 | 8.0 | 0.00 | 0.03 | 0.03 | 78 | 1020.4 |
| 20260904210544 | 60 | 238 | 3.0 | 8.0 | 0.00 | 0.03 | 0.03 | 78 | 1020.4 |
| 20260904205545 | 60 | 244 | 3.0 | 8.0 | 0.00 | 0.03 | 0.03 | 78 | 1020.2 |
| 20260904205044 | 60 | 270 | 4.0 | 7.0 | 0.00 | 0.03 | 0.03 | 78 | 1020.2 |
| 20260904204603 | 60 | 261 | 3.0 | 9.0 | 0.00 | 0.03 | 0.03 | 78 | 1020.3 |
| 20260904204043 | 60 | 263 | 2.0 | 9.0 | 0.00 | 0.03 | 0.03 | 78 | 1020.3 |
| 20260904203544 | 60 | 248 | 3.0 | 7.0 | 0.00 | 0.03 | 0.03 | 78 | 1020.2 |
| 20260904203105 | 60 | 243 | 3.0 | 7.0 | 0.00 | 0.03 | 0.03 | 78 | 1020.2 |
| 20260904202546 | 60 | 247 | 2.0 | 7.0 | 0.00 | 0.03 | 0.03 | 78 | 1020.3 |
| 20260904202042 | 61 | 263 | 3.0 | 7.0 | 0.00 | 0.03 | 0.03 | 77 | 1020.3 |
| 20260904201601 | 61 | 249 | 2.0 | 7.0 | 0.00 | 0.03 | 0.03 | 77 | 1020.3 |
| 20260904201043 | 61 | 237 | 3.0 | 7.0 | 0.00 | 0.03 | 0.03 | 77 | 1020.3 |
| 20260904200543 | 61 | 278 | 3.0 | 6.0 | 0.00 | 0.03 | 0.03 | 77 | 1020.2 |
| 20260904200110 | 61 | 233 | 3.0 | 8.0 | 0.00 | 0.03 | 0.03 | 77 | 1020.3 |
| 20260904195545 | 61 | 247 | 3.0 | 8.0 | 0.00 | 0.03 | 0.03 | 76 | 1020.2 |
| 20260904195043 | 61 | 257 | 3.0 | 6.0 | 0.00 | 0.03 | 0.03 | 76 | 1020.1 |
| 20260904194610 | 62 | 247 | 2.0 | 6.0 | 0.00 | 0.03 | 0.03 | 76 | 1020.1 |
| 20260904194044 | 62 | 259 | 2.0 | 6.0 | 0.00 | 0.03 | 0.03 | 75 | 1020.0 |
| 20260904193544 | 62 | 256 | 2.0 | 7.0 | 0.00 | 0.03 | 0.03 | 75 | 1020.0 |
| 20260904193100 | 62 | 252 | 2.0 | 8.0 | 0.00 | 0.03 | 0.03 | 75 | 1019.8 |
| 20260904192544 | 62 | 258 | 3.0 | 8.0 | 0.00 | 0.03 | 0.03 | 75 | 1019.7 |
| 20260904192044 | 62 | 300 | 2.0 | 7.0 | 0.00 | 0.03 | 0.03 | 74 | 1019.5 |
| 20260904191602 | 62 | 238 | 3.0 | 10.0 | 0.00 | 0.03 | 0.03 | 74 | 1019.3 |
| 20260904191045 | 63 | 246 | 3.0 | 10.0 | 0.00 | 0.03 | 0.03 | 74 | 1019.2 |
| 20260904190546 | 63 | 254 | 4.0 | 10.0 | 0.00 | 0.03 | 0.03 | 73 | 1019.1 |
| 20260904190109 | 63 | 253 | 5.0 | 9.0 | 0.00 | 0.03 | 0.03 | 73 | 1018.9 |
| 20260904185545 | 63 | 236 | 3.0 | 10.0 | 0.00 | 0.03 | 0.03 | 72 | 1018.9 |
| 20260904185043 | 63 | 244 | 4.0 | 10.0 | 0.00 | 0.03 | 0.03 | 72 | 1019.0 |
| 20260904184613 | 63 | 227 | 3.0 | 10.0 | 0.00 | 0.03 | 0.03 | 72 | 1018.8 |
| 20260904184045 | 64 | 271 | 5.0 | 12.0 | 0.00 | 0.03 | 0.03 | 71 | 1018.7 |
| 20260904183543 | 64 | 227 | 4.0 | 16.0 | 0.00 | 0.03 | 0.03 | 71 | 1018.6 |